Dewpoint
53 54 54 54 55 55 56 57 58 59 59 60 61 61 61 61 61 62 63 63 63 64 64 64 64 64 64 64 65 65 65 63 62 61 60 61 63 65 65 67 67 64 63 57 58 57 54 53 53 53 54 53 54 49 54 51 50 51 45 42 40 39 38 40 38 37 35 32 33 35 35 32 35 36 37 39 37 36 36 35 39 43 41 49 51 55 60 60
52 53 54 54 54 55 55 56 57 58 59 60 60 61 61 61 61 62 62 63 63 64 64 64 64 64 64 64 65 65 64 63 61 60 59 63 65 65 67 67 67 66 62 59 57 56 56 53 53 54 51 50 59 50 49 51 48 47 44 43 39 40 38 35 34 32 30 29 29 32 33 33 33 36 37 33 31 32 36 37 37 39 41 50 52 56 60 60
52 52 53 53 54 54 55 55 56 57 58 59 60 60 61 61 61 61 62 62 63 63 64 64 64 64 64 64 64 63 62 60 59 57 59 64 65 66 66 67 66 65 60 59 58 56 56 54 53 51 51 50 50 47 47 46 44 44 44 42 41 41 40 39 36 32 31 30 28 31 30 30 32 33 37 35 30 32 31 34 35 36 38 46 49 51 59 60
51 52 52 52 53 54 54 55 56 56 57 58 59 60 61 61 61 61 62 62 62 63 63 63 64 64 63 64 64 63 61 56 53 55 56 64 65 66 65 67 66 63 59 59 59 56 56 56 54 54 52 50 51 49 46 47 46 44 43 42 43 39 39 37 35 31 29 28 30 28 30 29 31 33 35 34 31 30 32 32 33 35 36 39 49 50 57 59
51 51 51 52 52 53 54 54 55 56 56 57 59 60 61 61 61 61 61 62 62 63 63 63 63 64 63 63 63 62 58 50 52 57 60 67 66 66 66 66 66 61 59 59 58 57 54 55 54 53 52 51 50 48 46 46 44 44 41 42 42 42 40 35 33 31 29 31 32 29 29 31 32 32 34 34 31 30 32 31 34 34 34 37 48 49 53 56
51 51 52 51 52 52 53 54 54 55 55 56 58 59 60 61 61 61 61 62 62 62 63 63 63 63 63 63 62 61 53 41 58 57 62 66 67 66 66 65 65 61 60 58 58 58 56 52 53 53 53 49 48 47 46 46 48 41 41 41 41 41 40 33 35 28 30 35 33 31 31 29 34 31 31 31 30 31 33 32 33 39 43 44 48 50 51 52
51 51 51 52 52 52 52 53 54 54 54 56 57 59 60 61 61 61 61 61 62 62 63 63 63 63 63 62 62 59 54 51 57 61 65 66 66 67 66 65 65 61 60 58 57 57 55 52 52 52 51 50 48 48 48 46 46 43 41 41 41 41 40 41 32 33 30 34 33 26 29 28 29 28 31 29 31 31 34 32 31 35 40 44 48 50 51 51
51 52 52 52 53 53 53 53 54 54 54 55 56 58 59 60 61 61 60 61 61 62 63 63 63 63 62 61 57 54 54 52 57 61 64 65 65 65 65 64 62 61 60 58 56 56 54 51 50 52 50 48 48 47 47 46 46 44 40 41 41 41 40 41 34 33 34 33 31 31 30 28 30 30 29 30 31 32 31 33 32 32 34 36 43 48 50 50
50 51 51 52 52 53 52 52 53 53 54 54 55 56 58 59 60 61 61 60 61 62 62 62 63 63 61 60 55 51 50 56 62 62 63 63 63 63 63 61 62 60 59 59 57 57 54 52 52 53 49 50 49 46 46 44 43 45 42 42 41 41 39 40 40 36 36 37 35 32 32 34 34 29 28 28 29 30 31 33 32 33 32 33 34 43 46 45
49 51 51 51 52 53 53 54 54 53 53 54 55 56 57 58 59 60 61 61 61 61 62 62 63 62 61 56 55 48 56 63 63 62 62 63 63 63 61 60 61 60 58 58 57 55 54 53 54 56 53 51 52 47 46 43 43 42 42 41 41 41 41 40 39 38 38 37 37 35 36 38 37 30 31 32 31 31 30 29 33 33 34 34 34 34 36 42
50 50 51 51 52 52 52 52 53 53 53 54 55 55 56 58 59 60 61 61 61 61 62 62 61 61 57 56 50 46 61 63 62 62 63 63 62 61 60 60 60 58 58 57 55 54 55 55 58 58 53 50 51 47 47 44 43 43 42 41 41 41 41 39 38 37 39 35 37 36 35 37 38 33 32 35 35 33 31 30 30 31 31 31 33 34 38 36
50 50 50 50 51 51 51 52 52 53 53 54 54 55 56 58 59 60 60 60 61 61 62 62 61 61 57 54 51 48 62 62 61 62 63 62 62 61 62 60 59 58 58 56 55 55 55 56 55 54 50 52 47 51 46 47 44 42 42 40 40 40 40 39 37 37 38 36 36 36 35 34 35 33 33 34 35 31 30 29 29 29 29 31 31 30 35 38
50 50 49 51 52 52 51 51 52 53 53 53 54 56 56 58 59 59 60 60 60 61 61 62 61 58 54 48 51 55 63 60 62 62 63 63 62 62 62 63 61 59 58 56 55 55 56 58 58 54 56 53 48 45 45 47 43 42 41 40 38 38 38 39 38 38 38 37 37 37 35 36 36 36 37 35 35 35 31 31 31 31 30 31 32 32 34 37
49 50 50 50 51 52 51 51 52 53 53 53 54 56 56 57 58 59 60 60 60 60 61 61 61 57 52 47 53 57 61 60 63 62 61 61 60 59 60 61 62 60 59 57 56 58 58 57 59 57 57 55 51 50 46 44 43 40 41 40 38 37 36 38 39 38 38 38 37 38 36 37 38 39 39 38 36 35 35 33 33 34 34 33 35 34 34 36
49 49 50 51 51 52 52 51 52 52 53 53 54 56 56 57 58 58 60 60 60 60 60 60 59 55 49 48 56 60 63 61 60 60 61 59 58 57 58 59 58 60 60 57 55 59 60 58 56 53 52 51 52 45 44 42 41 41 39 38 39 38 38 38 39 39 38 38 37 36 36 36 38 39 40 41 38 36 36 36 36 36 36 36 37 37 35 34
49 49 50 50 50 51 52 52 52 52 53 53 54 55 56 57 58 58 58 59 60 59 60 56 54 54 50 44 49 61 58 54 55 60 60 60 58 56 58 57 59 59 58 59 57 56 58 57 54 53 50 52 49 46 44 44 41 40 39 39 38 39 39 38 39 39 39 37 37 37 36 38 38 40 41 41 40 36 36 36 37 38 37 37 38 39 39 41
49 49 50 51 51 51 51 51 52 53 53 54 55 55 56 57 57 58 57 58 58 59 57 53 55 55 43 52 57 55 52 54 55 59 59 60 58 57 56 56 56 57 57 56 57 57 55 52 52 51 53 48 48 48 45 43 41 39 40 38 39 38 38 38 39 39 41 38 36 38 37 37 38 39 40 40 40 38 37 37 38 39 40 40 42 41 39 40
49 49 49 50 51 50 50 51 51 52 53 54 54 54 53 56 57 57 57 56 58 57 56 58 55 50 46 51 46 49 53 53 56 57 58 58 58 56 56 55 56 55 53 53 53 53 54 51 50 47 46 46 49 48 43 39 41 40 39 39 39 38 38 39 38 38 38 38 38 37 37 38 38 39 40 41 40 39 39 40 39 39 39 40 41 40 40 40
50 50 50 49 49 50 51 51 51 51 52 53 54 54 54 55 56 56 53 53 50 47 43 45 47 38 36 44 48 50 52 53 57 57 56 57 57 56 55 55 54 51 49 49 48 50 51 51 50 47 43 43 43 45 44 42 42 40 40 40 40 38 37 38 40 40 40 39 39 40 39 37 37 38 39 40 41 39 40 40 40 40 40 40 41 41 41 42
48 50 50 50 49 50 50 51 51 51 52 50 50 50 51 46 46 44 50 49 47 47 49 48 48 46 47 49 45 51 56 54 54 56 55 56 55 54 53 52 51 51 48 45 48 49 51 44 42 42 42 43 43 45 45 44 44 45 45 44 44 39 38 40 40 41 41 40 39 40 40 40 40 40 39 39 40 40 40 39 39 39 39 40 41 41 41 42
49 48 50 50 50 49 49 52 52 51 51 50 49 47 41 42 38 37 44 47 50 49 48 50 50 47 45 51 50 49 51 51 54 54 54 56 54 52 51 50 48 45 47 48 46 52 50 44 43 44 44 43 43 44 45 44 44 47 44 42 43 44 41 39 38 40 41 40 39 39 39 40 40 40 40 41 40 40 39 39 39 40 39 40 41 42 43 42
48 48 49 49 50 50 51 51 51 51 51 50 48 44 43 43 45 52 45 41 46 50 49 50 51 49 48 50 52 51 52 50 50 54 56 55 52 49 49 47 46 43 48 47 47 45 43 42 45 47 47 45 44 44 44 44 44 46 44 44 44 43 42 44 41 39 39 40 38 39 38 38 38 38 39 39 39 39 40 40 40 40 40 40 40 41 42 43
48 48 48 49 50 50 51 51 51 51 49 48 44 46 44 43 45 52 51 44 41 47 48 48 47 48 48 50 51 52 48 47 47 52 53 53 50 48 48 46 45 45 46 45 42 40 37 41 46 47 48 46 45 43 44 44 44 46 45 41 40 42 44 38 38 38 39 38 37 37 36 36 36 36 36 37 37 38 39 40 40 41 40 40 40 40 41 42
46 48 48 48 49 50 51 51 51 50 48 46 45 45 45 47 46 50 48 40 38 44 46 47 48 48 48 47 52 50 46 47 48 50 54 51 48 48 48 46 43 45 43 43 42 40 39 46 48 48 46 46 44 45 43 43 44 46 45 43 41 42 40 37 45 38 38 38 39 37 36 35 36 35 35 36 37 36 37 38 37 39 42 42 44 44 44 42
47 49 49 48 48 50 49 50 47 47 46 47 46 47 47 50 55 51 47 41 40 41 48 48 48 48 50 55 54 50 48 48 48 52 54 51 49 47 47 47 45 43 43 42 41 41 40 45 48 47 48 48 47 45 45 44 44 44 44 42 41 45 44 42 38 37 37 36 38 38 33 32 34 35 34 34 34 34 34 35 35 35 37 41 41 41 43 46
47 49 49 49 49 49 50 47 45 46 46 44 45 47 47 48 53 52 46 32 30 39 46 40 49 44 53 48 51 51 49 44 48 52 53 52 51 46 45 46 45 42 43 43 41 42 40 46 44 43 46 45 46 45 46 46 43 42 43 44 43 43 42 41 41 42 34 31 34 37 31 29 32 32 31 30 32 33 33 34 35 35 36 37 40 41 41 43
48 49 49 49 49 49 45 41 45 45 43 43 44 46 47 47 53 50 39 29 26 39 37 45 43 45 48 49 49 46 36 41 52 53 52 53 49 54 44 44 44 44 45 46 43 40 43 44 43 43 42 42 42 43 45 46 44 42 45 44 42 39 41 43 42 39 37 39 37 37 36 31 30 32 33 33 31 30 28 26 33 35 37 37 38 39 41 42
48 48 49 49 49 49 45 44 44 43 42 43 45 45 46 47 51 51 36 19 20 40 37 42 44 53 47 50 48 43 47 48 44 48 52 52 51 49 48 43 43 41 44 43 35 44 41 42 42 41 41 41 40 43 47 47 44 44 46 43 42 42 43 43 41 38 39 37 33 34 37 31 30 31 33 32 30 29 28 28 27 35 38 37 38 37 37 37
49 49 49 49 49 49 47 47 44 42 44 44 46 46 47 51 47 39 28 18 36 37 51 41 53 48 48 49 46 44 44 46 40 50 53 53 52 49 45 44 42 42 43 42 37 42 44 42 42 42 41 39 41 43 47 47 43 45 47 44 42 41 42 43 42 39 37 35 32 34 34 31 29 31 32 33 31 29 29 29 28 30 37 38 37 37 37 36
49 49 49 49 49 48 48 48 44 44 45 44 46 46 50 48 41 28 22 15 36 26 39 42 40 41 45 43 42 44 44 46 50 51 51 49 50 50 49 52 43 42 42 43 40 43 42 44 44 43 41 41 43 45 46 46 46 46 44 43 41 41 40 39 40 37 34 33 34 35 34 32 29 31 32 33 33 32 32 32 31 30 32 33 35 36 39 38
49 49 49 49 47 47 46 42 44 46 45 45 47 50 45 42 31 22 17 23 33 34 43 42 40 45 42 41 37 43 42 44 46 48 44 49 47 47 47 45 46 44 42 42 41 43 43 43 42 44 44 46 46 44 46 47 45 44 41 40 39 37 38 36 34 36 33 31 35 36 36 34 30 30 33 31 32 32 33 33 33 31 34 35 37 36 36 36
49 49 48 47 47 47 44 42 44 46 45 47 50 44 39 26 28 19 18 37 26 31 35 37 42 42 42 42 39 41 40 44 46 46 42 43 42 42 42 38 41 35 35 36 35 42 41 42 42 43 45 43 43 43 43 45 45 43 41 39 34 31 33 30 33 30 31 31 33 36 36 34 33 32 32 33 32 32 32 32 31 31 31 33 35 37 38 39
49 49 49 48 48 47 45 45 46 45 49 48 46 42 32 22 15 23 27 28 24 37 35 41 41 41 41 38 37 40 42 39 45 44 43 44 43 42 43 40 41 38 32 38 37 37 37 42 42 43 43 43 42 38 39 38 42 41 38 36 32 28 27 25 30 32 32 33 36 35 36 34 34 34 35 34 35 34 33 33 35 34 34 34 36 37 37 41
49 49 47 47 47 47 47 45 45 48 48 46 42 35 30 18 17 27 26 29 27 39 40 39 40 40 39 36 38 40 36 41 42 42 43 41 42 39 41 43 42 38 39 37 35 35 32 32 39 41 38 43 40 37 39 38 41 40 40 36 32 29 27 24 27 25 28 31 33 36 32 32 32 32 33 31 32 34 34 33 35 37 37 37 37 39 40 39
49 48 47 47 47 47 46 45 46 49 47 43 35 30 21 19 23 22 22 28 28 38 38 40 39 38 36 37 38 40 38 38 42 41 40 40 38 39 39 40 43 40 38 35 37 33 32 33 40 41 41 41 39 39 40 40 38 39 40 40 35 31 33 26 32 31 30 31 31 32 33 38 34 34 34 35 34 32 34 34 34 34 35 37 38 39 40 40
48 47 47 47 47 47 46 46 48 48 43 39 32 26 23 24 21 28 23 31 34 36 37 39 39 35 34 35 38 38 41 38 41 41 39 39 40 39 40 41 41 41 36 33 36 32 33 30 41 40 41 40 39 38 39 37 30 38 39 35 36 43 37 32 32 32 31 31 28 32 32 33 33 33 34 34 34 33 31 32 33 34 36 37 39 40 41 42
46 46 43 45 46 46 46 47 48 47 43 37 29 24 27 27 31 32 35 32 33 38 37 32 31 33 31 31 35 36 38 40 40 39 33 39 38 39 40 41 43 41 40 35 35 40 31 32 40 38 38 40 40 39 40 37 43 38 34 38 41 43 41 34 27 32 29 26 26 32 30 30 29 29 33 34 34 33 32 31 31 32 34 36 37 39 43 43
45 45 43 44 45 46 46 49 48 46 41 33 25 28 31 28 32 35 38 37 37 38 36 34 33 35 32 33 33 35 39 34 36 37 33 38 34 40 39 39 43 42 41 44 36 37 37 33 37 38 38 39 40 40 40 44 43 41 37 42 35 31 31 34 31 26 26 26 27 30 31 31 32 30 32 31 30 30 32 33 32 31 32 33 37 41 42 43
44 42 38 42 45 46 47 49 46 40 36 28 28 28 30 30 35 34 36 38 38 37 34 35 33 34 35 33 35 36 37 32 38 36 33 36 32 40 38 39 40 41 41 43 37 40 39 32 34 38 37 38 39 38 33 38 42 43 43 39 39 38 33 32 31 31 29 24 24 24 30 28 32 30 30 29 29 30 29 28 28 29 31 33 37 40 41 43
42 37 36 44 46 48 48 46 42 38 33 26 26 26 33 29 34 36 37 39 37 36 33 34 36 34 35 34 35 34 36 34 36 36 35 37 33 40 38 39 38 39 40 42 39 42 34 38 31 37 39 37 34 35 34 36 36 37 38 37 37 34 39 39 34 31 29 25 25 22 23 26 29 30 30 29 28 28 27 27 29 29 31 34 36 39 41 40
41 36 37 45 45 49 48 41 35 31 30 31 31 29 30 28 34 35 36 38 38 40 34 35 37 34 34 34 35 36 34 34 36 35 34 36 34 35 40 39 39 38 41 41 40 41 34 33 31 36 36 35 34 36 35 37 37 36 36 35 36 34 31 30 26 33 31 29 26 25 23 25 30 28 28 28 27 25 30 31 33 33 31 33 35 36 35 40
38 31 34 45 47 47 41 32 32 34 31 27 28 31 30 35 34 35 37 39 39 37 39 35 36 35 35 36 35 35 34 34 36 35 36 35 36 37 39 40 39 40 39 37 36 40 36 36 36 33 35 36 37 36 38 36 37 36 35 34 37 35 32 27 25 29 31 31 30 28 27 28 30 29 29 27 25 24 25 29 27 29 29 28 32 33 39 42
36 31 45 46 45 44 39 32 33 32 30 32 36 34 36 34 33 35 37 38 34 37 34 34 34 34 36 37 36 37 34 32 35 33 34 35 35 36 40 40 40 40 39 37 40 41 39 32 33 34 38 38 39 40 39 38 38 36 35 35 35 34 33 31 27 31 30 29 29 29 27 27 31 29 28 28 28 28 27 28 30 29 31 32 32 35 39 39
35 39 40 45 44 41 35 26 27 29 29 32 33 32 36 36 34 33 35 37 35 34 33 34 34 35 34 37 37 35 37 31 36 35 33 35 35 39 40 39 39 39 37 37 35 41 32 32 34 32 30 32 34 36 36 35 37 34 33 34 34 34 35 33 30 29 28 31 30 28 24 27 30 30 31 30 28 27 26 28 30 31 33 35 33 35 37 39
40 41 39 42 44 39 31 31 29 29 30 30 31 31 33 34 37 36 34 36 37 35 32 33 34 35 34 36 34 36 38 38 32 38 37 36 37 41 40 40 39 37 38 40 38 40 32 33 32 29 25 24 23 25 28 32 34 35 36 35 34 34 34 33 31 31 28 31 32 29 27 27 29 32 32 31 32 31 32 31 30 31 34 34 36 39 40 41
34 29 30 34 39 39 36 36 34 30 30 31 30 30 32 31 35 37 38 36 38 37 36 36 37 35 34 33 33 34 35 38 34 34 34 33 35 37 41 40 39 39 38 39 39 37 30 34 32 29 28 26 28 30 33 35 34 32 34 36 35 35 34 34 32 31 29 29 29 31 31 31 31 32 32 32 32 32 30 31 30 33 34 35 37 39 39 39
35 30 29 28 33 34 33 36 35 32 29 33 28 31 30 31 34 34 38 34 37 36 36 35 34 32 32 32 32 33 36 34 35 34 34 34 36 37 42 42 43 41 40 40 42 36 32 30 31 29 29 29 30 29 33 34 33 33 33 34 36 35 34 34 32 31 32 30 27 30 32 31 31 31 31 31 32 32 31 31 32 33 35 36 36 34 35 33
28 30 32 35 30 29 30 30 35 33 32 32 30 32 30 30 33 31 35 38 36 36 34 34 33 33 33 32 32 31 32 32 34 32 35 35 37 38 39 41 40 41 42 42 42 35 30 28 31 29 29 30 30 31 31 33 33 33 33 34 34 35 35 33 33 34 34 31 28 31 33 32 31 31 32 32 32 31 32 33 33 33 32 33 33 33 32 32
35 33 33 36 31 33 32 32 35 34 32 32 32 32 30 31 31 33 33 33 34 33 34 29 32 33 34 35 33 31 31 30 29 34 30 34 35 36 35 37 39 41 39 38 39 37 32 27 31 30 29 30 33 33 32 29 30 32 33 33 34 35 35 35 34 35 35 34 34 33 34 34 33 33 34 34 35 35 34 33 31 30 30 31 32 31 31 31
32 31 30 37 36 33 32 33 34 34 31 33 30 32 31 31 30 32 34 33 31 31 34 32 32 34 34 34 33 32 32 31 33 32 34 34 35 36 36 35 36 40 41 38 37 37 35 26 33 31 27 28 32 35 34 32 30 27 30 30 32 34 35 35 34 36 36 36 36 36 34 34 35 36 35 35 35 34 33 32 30 30 30 31 31 32 31 31
41 42 37 34 31 33 32 33 33 33 31 33 31 32 32 32 31 32 33 35 32 31 32 32 33 34 34 34 33 33 34 34 35 34 35 36 34 36 34 33 38 36 37 35 35 32 32 26 31 30 27 27 30 31 33 33 31 29 29 30 30 29 28 32 32 34 34 34 35 34 33 34 35 36 36 35 33 32 30 29 28 27 27 28 28 29 29 28
43 42 44 38 31 34 31 32 33 32 30 32 31 32 31 32 33 33 31 34 36 36 33 33 34 34 33 33 32 33 35 35 37 38 35 35 36 34 33 37 37 35 34 35 36 30 29 27 28 27 25 22 27 30 29 28 25 25 28 31 31 30 29 29 29 31 33 34 32 31 32 33 33 31 28 27 26 25 24 23 23 24 25 26 25 24 24 27